Regional Weather Roundup
Issued by NWS

Home | Current Version | Previous Version | Text Only | Print | Product List | Glossary On
Versions: 1 2 3 4 5 6 7 8 9 10 11 12 13 14 15 16 17 18 19 20 21 22 23 24 25 26 27 28 29 30 31 32 33 34 35 36 37 38 39 40 41 42 43 44 45 46 47 48 49 50
000
ASUS43 KDTX 210701
RWRMI
MICHIGAN HOURLY REGIONAL WEATHER ROUNDUP
NATIONAL WEATHER SERVICE DETROIT/PONTIAC MI
300 AM EDT THU AUG 21 2014

NOTE: "FAIR" INDICATES FEW OR NO CLOUDS BELOW 12,000 FEET WITH NO
SIGNIFICANT WEATHER AND/OR OBSTRUCTION TO VISIBILITY.

MIZ047>049-052>055-059>063-066>070-074>076-081>083-210800-
SOUTHEAST LOWER MICHIGAN

CITY           SKY/WX    TMP DP  RH WIND       PRES   REMARKS
ADRIAN         PTCLDY    68  65  90 CALM      29.98S
ALMA           FOG       58  58  97 CALM      29.97F VSB 1/4
ANN ARBOR      PTCLDY    64  61  90 CALM      29.96F
BAD AXE        CLOUDY    65  65 100 NW5       29.95F FOG
CARO           CLEAR     63  62  97 CALM      29.95F
DETROIT CITY   CLEAR     72  63  73 W3        29.95F
DETROIT        MOCLDY    68  63  84 SW6       29.96F
FLINT          CLEAR     66  61  84 CALM      29.96F
GROSSE ILE     CLOUDY    70  64  83 CALM      29.94F
HILLSDALE      PTCLDY    65  65 100 CALM      29.98F
HOWELL         CLEAR     62  61  96 CALM      29.97F

CITY           SKY/WX    TMP DP  RH WIND       PRES   REMARKS
JACKSON        MOCLDY    66  64  93 CALM      29.97F
LAMBERTVILLE   PTCLDY    68  64  88 CALM      29.97S
LANSING        CLEAR     64  62  93 CALM      29.97F
LAPEER         FAIR      64  62  93 CALM      29.96F
MASON          CLEAR     61  60  97 CALM      29.97S FOG
MONROE         CLOUDY    68  66  94 W3        29.95S
MT. CLEMENS    CLEAR     68  64  85 W5        29.93F
PONTIAC        CLEAR     66  61  84 W5        29.96F
PORT HOPE        N/A     66  64  93 W5        29.93S
PORT HURON     CLEAR     64  64 100 CALM      29.94F
TRI CITIES     CLEAR     63  61  93 W5        29.97F
TROY           CLEAR     69  63  80 CALM      29.97F
SAGINAW HB     CLEAR     63  63 100 NW5       29.96F
$$
MIZ043>046-050>051-056>058-064>065-071>073-077>080-210800-
SOUTHWEST LOWER MICHIGAN

CITY           SKY/WX    TMP DP  RH WIND       PRES   REMARKS
BATTLE CREEK   PTCLDY    70  65  84 CALM      29.97F
BENTON HARBOR  CLOUDY    73  69  87 CALM      29.95F
BIG RAPIDS     PTCLDY    57  57 100 CALM      29.98F
COLDWATER      MOCLDY    67  66  96 CALM      29.98S
FREMONT        FAIR      60  59  99 CALM      29.97S FOG
HOLLAND        PTCLDY    66  64  93 CALM      29.96F
GRAND RAPIDS   MOCLDY    66  66 100 CALM      29.97S
IONIA          FAIR      63  62  97 CALM      29.96F FOG
KALAMAZOO      MOCLDY    68  65  90 CALM      29.96F
LUDINGTON      CLEAR     57  56  98 CALM      29.99R FOG
MARSHALL       MOCLDY    66  64  96 SE3       29.96F
MOUNT PLEASANT CLEAR     60  60  98 CALM      29.97F
MUSKEGON       PTCLDY    67  63  87 CALM      29.97S
SOUTH HAVEN    MOCLDY    69  68  97 CALM      29.95F
$$
MIZ016>042-210800-
NORTHERN LOWER MICHIGAN

CITY           SKY/WX    TMP DP  RH WIND       PRES   REMARKS
ALPENA         CLOUDY    64  61  90 CALM      29.95S
BEAVER ISLAND  CLOUDY    62  62  98 CALM      29.97R
BELLAIRE       CLOUDY    63  61  93 CALM      29.97S
CADILLAC       MOCLDY    55  54  99 CALM      29.98F FOG
CHARLEVOIX     RAIN      64  64 100 W5        30.00R
FRANKFORT      PTCLDY    61  58  90 CALM      29.97F
GAYLORD        FOG       61  60  97 W7        29.98S VSB 1/2
GRAYLING       CLOUDY    62  62  98 CALM      29.99S
HARBOR SPRINGS CLOUDY    64  62  94 CALM      29.96S
HOUGHTON LAKE  CLOUDY    63  60  90 W6        29.99S
MANISTEE       CLOUDY    55  54  94 CALM      29.98S VSB 3/4
OSCODA         CLOUDY    65  64  99 CALM      29.94S FOG
PELLSTON       CLOUDY    63  62  97 SW3       29.96S
ROGERS CITY    CLOUDY    63  63 100 W3        29.96S FOG
TRAVERSE CITY  CLOUDY    62  59  90 SW5       29.97R
$$
MIZ007>008-015-210800-
EASTERN UPPER MICHIGAN

CITY           SKY/WX    TMP DP  RH WIND       PRES   REMARKS
KINROSS        CLOUDY    59  59 100 N3        29.95S VSB 3/4
MACKINAC ISLAN CLOUDY    60  60 100 CALM      29.94S
NEWBERRY       MOCLDY    56  56 100 CALM      29.95R FOG
S. S. MARIE    CLOUDY    60  58  92 NW3       29.94S
$$
MIZ004>006-011>014-085-210800-
CENTRAL UPPER MICHIGAN

CITY           SKY/WX    TMP DP  RH WIND       PRES   REMARKS
MANISTIQUE     FOG       57  57 100 CALM      29.95S VSB 1
ESCANABA       CLOUDY    63  61  94 CALM      29.96S
MENOMINEE      CLOUDY    64  63  94 CALM      29.95S
SAWYER-GWINN   FOG       58  58  97 CALM      29.97S VSB 1
$$
MIZ001>003-009>011-084-210800-
WESTERN UPPER MICHIGAN

CITY           SKY/WX    TMP DP  RH WIND       PRES   REMARKS
IRON MOUNTAIN  CLOUDY    64  60  87 CALM      29.97S
HOUGHTON       FOG       60  58  92 CALM      29.96R VSB 1/4
COPPER HARBOR    N/A     57  56  96 CALM      29.95R
IRONWOOD       CLOUDY    54  54 100 CALM      29.94S VSB 3/4
$$

ABBREVIATIONS USED IN REMARKS
   TC - TEMPERATURE IN CELSIUS
  WCI - WIND CHILL INDEX
   HX - HEAT INDEX
  VSB - VISIBILITY




USA.gov is the U.S. government's official web portal to all federal, state and local government web resources and services.